Showing default

EXPLORER 20, 870

Orbit data source: Space-Track

EXPLORER 20, 870 is a payload satellite owned by GSFC (US) in LEO that was launched on Tue, 25 Aug 1964 UTC via an SCOUT X-4 launch vehicle from the Air Force Western Test Range (AFWTR). Payload-class satellites include a variety of spacecraft equipped with specific instruments for various scientific and technological missions. These include communications satellites like Starlink; space stations such as the ISS; scientific satellites like the Hubble; Earth observation satellites from companies like Planet Labs, Umbra, and HawkEye 360; GPS; miniature CubeSats for education and research; and military/defense satellites.

Loading next visibility...
Identifier
870, 1964-051A
Orbit
LEO
Country
Flag of USUS
Related business
Manufacturer
Cutler-Hammer/AIL
Mission
Civil Science
Bus & Motor
S-48, Unknown motor
Mass
44 kg wet, 44 kg dry
Launch date (UTC)
1964-08-25 (61 years ago)
Launch vehicle
SCOUT X-4
Launch site
Air Force Western Test Range (AFWTR)
Object type
Payload
Rocket body
Debris
Shape & HBR
Double Cone + 6 Rod, 18.5 m
Radar Cross Section
0.292 m², Medium (>0.1 m² and < 1m²)

Expand to show TLE details & history
Last TLE update: 21 hours ago

TLE from 21 hours ago
0 EXPLORER 20
1 00870U 64051A   25242.23286719  .00000189  00000-0  13785-3 0  9999
2 00870  79.8950 235.3530 0096652 328.9400  30.6062 13.91706271 92960
Epoch: 2025-08-30T05:35Z
TLE epoch observation values (Epoch: 2025-08-30T05:35:19.725Z)
Latitude
-0.00003°
Longitude
172.8507°
Altitude
864.92 km
Speed
7.451 km/s
True Right ascension
15h 41m 24s
True Declination
0° 00' 00"
Sunlit
Object was in daylight at epoch
Visualization orbit readout
Latitude
Unknown
Longitude
Unknown
Altitude
Unknown
Speed
Unknown
Apparent Right ascension
Unknown
Apparent Declination
Unknown
Sunlit
N/A
Visualization observer readout
Local Sidereal Time
18:33:44
Azimuth
Unknown
Elevation
Unknown
Doppler factor
Unknown
Orbital elements
Apogee altitude
990.462 km
Perigee altitude
849.387 km
Semi-major axis
7,298.062 km
Eccentricity
0.00967
Inclination
79.895°
RAAN
235.353°
Arg. of periapsis
328.94°
True anomaly
31.17601°
Mean anomaly
30.6062°
Eccentric anomaly
30.89051°
Mean motion
3.48122 °/min
Orbital period
103.41 mins
BSTAR
0.00013785
Loading maneuver chart data...
Computing Atmospheric mass density...
Loading historical data...
Loading historical data...
Loading historical data...
Loading historical data...
Loading historical data...
Loading historical data...
Loading historical data...

Documentation

Showing up to 5 results
|